TimeCEST,TemperatureF,Dew PointF,Humidity,Sea Level PressureIn,VisibilityMPH,Wind Direction,Wind SpeedMPH,Gust SpeedMPH,PrecipitationIn,Events,Conditions,WindDirDegrees,DateUTC
12:55 AM,48.2,46.4,93,30.24,0.0,North,-9999.0,-,N/A,Fog,Fog,0,2012-10-02 22:55:00
1:55 AM,46.4,44.6,93,30.24,0.0,North,-9999.0,-,N/A,Fog,Fog,0,2012-10-02 23:55:00
2:00 AM,47,45,92,,0,Calm,Calm,,,,,,2012-10-03 00:00:00
2:55 AM,46.4,44.6,93,30.24,0.0,North,-9999.0,-,N/A,Fog,Fog,0,2012-10-03 00:55:00
3:55 AM,46.4,42.8,87,30.24,0.0,North,-9999.0,-,N/A,Fog,Fog,0,2012-10-03 01:55:00
4:55 AM,44.6,41.0,87,30.24,0.0,North,-9999.0,-,N/A,Fog,Fog,0,2012-10-03 02:55:00
5:55 AM,44.6,39.2,81,30.21,-9999.0,North,-9999.0,-,N/A,,Clear,0,2012-10-03 03:55:00
6:55 AM,44.6,37.4,76,30.21,-9999.0,North,-9999.0,-,N/A,,Clear,0,2012-10-03 04:55:00
7:55 AM,44.6,39.2,81,30.21,-9999.0,North,-9999.0,-,N/A,,Clear,0,2012-10-03 05:55:00
8:00 AM,44,40,79,,12,West,4.6,,,,,270,2012-10-03 06:00:00
8:55 AM,44.6,41.0,87,30.21,-9999.0,North,-9999.0,-,N/A,,Clear,0,2012-10-03 06:55:00
9:55 AM,44.6,39.2,81,30.24,-9999.0,North,-9999.0,-,N/A,,Clear,0,2012-10-03 07:55:00
10:55 AM,46.4,41.0,81,30.24,-9999.0,North,-9999.0,-,N/A,,Clear,0,2012-10-03 08:55:00
11:55 AM,48.2,41.0,76,30.24,-9999.0,North,-9999.0,-,N/A,,Partly Cloudy,0,2012-10-03 09:55:00
12:55 PM,50.0,44.6,82,30.27,-9999.0,North,-9999.0,-,N/A,,Scattered Clouds,0,2012-10-03 10:55:00
1:55 PM,51.8,46.4,82,30.27,-9999.0,North,-9999.0,-,N/A,,Scattered Clouds,0,2012-10-03 11:55:00
2:00 PM,51,46,77,,16,West,9.2,,,,,260,2012-10-03 12:00:00
2:55 PM,51.8,44.6,76,30.27,-9999.0,North,-9999.0,-,N/A,,Scattered Clouds,0,2012-10-03 12:55:00
3:55 PM,50.0,42.8,76,30.24,-9999.0,North,-9999.0,-,N/A,,Scattered Clouds,0,2012-10-03 13:55:00
4:55 PM,50.0,44.6,82,30.24,-9999.0,North,-9999.0,-,N/A,,Scattered Clouds,0,2012-10-03 14:55:00
5:55 PM,50.0,44.6,82,30.24,-9999.0,North,-9999.0,-,N/A,,Scattered Clouds,0,2012-10-03 15:55:00
6:55 PM,50.0,44.6,82,30.24,-9999.0,North,-9999.0,-,N/A,,Partly Cloudy,0,2012-10-03 16:55:00
7:55 PM,50.0,44.6,82,30.24,-9999.0,North,-9999.0,-,N/A,,Partly Cloudy,0,2012-10-03 17:55:00
8:00 PM,50,44,75,,12,WNW,11.5,,,,,300,2012-10-03 18:00:00
8:55 PM,50.0,44.6,82,30.24,0.0,North,-9999.0,-,N/A,Fog,Fog,0,2012-10-03 18:55:00
9:55 PM,50.0,46.4,87,30.24,0.0,North,-9999.0,-,N/A,Fog,Fog,0,2012-10-03 19:55:00
10:55 PM,50.0,46.4,87,30.24,0.0,North,-9999.0,-,N/A,Fog,Fog,0,2012-10-03 20:55:00
11:55 PM,48.2,44.6,87,30.24,0.0,North,-9999.0,-,N/A,Fog,Fog,0,2012-10-03 21:55:00